Tracking 18843 objects as of 20-November-2017
HD Live streaming from Space Station
objects crossing your sky now

COSMOS 970 DEB

Track COSMOS 970 DEB now!
10-day predictions


NORAD ID: 12862
Int'l Code: 1977-121AQ
Perigee: 768.4 km
Apogee: 998.6 km
Inclination: 66.2 °
Period: 102.5 minutes
Semi major axis: 7254 km
RCS: 0.0129 m2 (small)
Launch date: December 21, 1977
Source: Commonwealth of Independent States (former USSR) (CIS)
Launch site: TYURATAM MISSILE AND SPACE COMPLEX (TTMTR)

Note: This is SATELLITE DEBRIS
aabbcc
Your satellite tracking list
Your tracking list is empty




NASA's NSSDC Master Catalog

Two Line Element Set (TLE):
1 12862U 77121AQ  17323.91441441 +.00000137 +00000-0 +12303-3 0  9994
2 12862 066.2105 228.7366 0158642 263.8092 180.8304 14.05049281910144
Source of the keplerian elements: AFSPC